Stewartville, MN

5:46 PM CDT on September 28, 2016 (GMT -0500)
Rochester International

Weather History for KRST - October, 2011

Change the Weather History Date:

Sunday, October 16, 2011

  Actual Average Record
Temperature  
Mean Temperature 50 °F 48 °F  
Max Temperature 58 °F 59 °F 84 °F (1953)
Min Temperature 41 °F 38 °F 21 °F (1937)
Degree Days  
Heating Degree Days 15 17  
Month to date heating degree days 90 225  
Since 1 July heating degree days 305 440  
Cooling Degree Days 0 0  
Month to date cooling degree days 26 4  
Year to date cooling degree days 706 583  
Moisture  
Dew Point 36 °F    
Average Humidity 63    
Maximum Humidity 89    
Minimum Humidity 36    
Precipitation  
Precipitation T in 0.06 in 2.35 in (1911)
Month to date precipitation 0.23 1.28  
Year to date precipitation 26.11 28.92  
Snow  
Snow 0.00 in 0.00 in 0.50 in (1937)
Month to date snowfall 0.0 0.2  
Since 1 July snowfall 0.0 0.2  
Snow Depth 0.00 in    
Sea Level Pressure  
Sea Level Pressure 29.88 in    
Wind  
Wind Speed 15 mph (WNW)    
Max Wind Speed 32 mph    
Max Gust Speed 39 mph    
Visibility 10 miles    
Events      
T = Trace of Precipitation, MM = Missing Value Source: NWS Daily Summary

Daily Weather History Graph

Daily Weather History Graph

Search for Another Location

Airport or City:

Trip Planner

Search our weather history database for the weather conditions in past years. The results will help you decide how hot, cold, wet, or windy it might be!

Date:

Astronomy

Oct. 16, 2011 Rise Set
Actual Time 7:25 AM CDT 6:25 PM CDT
Civil Twilight 6:56 AM CDT 6:54 PM CDT
Nautical Twilight 6:22 AM CDT 7:27 PM CDT
Astronomical Twilight 5:49 AM CDT 8:00 PM CDT
Moon 9:02 PM CDT (10/16) 11:51 AM CDT (10/16)
Length of Visible Light 11h 57m
Length of Day
10h 59m
Waning Gibbous, 82% of the Moon is Illuminated
Oct 16
Waning Gibbous
Oct 19
Last Quarter
Oct 26
New
Nov 2
First Quarter
Nov 10
Full

Hourly Weather History & Observations

Time (CDT) Temp. Windchill Dew Point Humidity Pressure Visibility Wind Dir Wind Speed Gust Speed Precip Events Conditions
12:54 AM 46.9 °F - 43.0 °F 86% 29.86 in 10.0 mi Calm Calm - 0.00 in   Overcast
1:54 AM 46.9 °F - 43.0 °F 86% 29.87 in 10.0 mi West 4.6 mph - N/A   Overcast
2:54 AM 46.9 °F - 42.1 °F 83% 29.87 in 10.0 mi WNW 8.1 mph - 0.00 in   Overcast
3:54 AM 46.0 °F 43.9 °F 42.1 °F 86% 29.83 in 10.0 mi West 4.6 mph - N/A   Overcast
4:54 AM 46.0 °F 41.4 °F 39.9 °F 79% 29.83 in 10.0 mi WNW 9.2 mph - N/A   Scattered Clouds
5:54 AM 43.0 °F 37.7 °F 39.0 °F 86% 29.85 in 10.0 mi West 9.2 mph - N/A   Scattered Clouds
6:54 AM 43.0 °F 37.7 °F 39.0 °F 86% 29.86 in 10.0 mi WNW 9.2 mph - N/A   Clear
7:54 AM 43.0 °F 36.8 °F 39.0 °F 86% 29.89 in 10.0 mi WNW 11.5 mph - N/A   Clear
8:54 AM 46.0 °F 40.2 °F 39.9 °F 79% 29.90 in 10.0 mi WNW 12.7 mph - N/A   Clear
9:54 AM 50.0 °F - 41.0 °F 71% 29.91 in 10.0 mi WNW 11.5 mph - N/A   Clear
10:54 AM 53.1 °F - 39.9 °F 61% 29.90 in 10.0 mi WNW 20.7 mph 25.3 mph N/A   Clear
11:54 AM 53.1 °F - 39.0 °F 59% 29.90 in 10.0 mi NW 21.9 mph 26.5 mph N/A   Clear
12:54 PM 55.0 °F - 35.1 °F 47% 29.90 in 10.0 mi WNW 20.7 mph 32.2 mph N/A   Partly Cloudy
1:54 PM 55.9 °F - 33.1 °F 42% 29.88 in 10.0 mi WNW 26.5 mph 32.2 mph N/A   Partly Cloudy
2:54 PM 57.0 °F - 32.0 °F 39% 29.88 in 10.0 mi WNW 23.0 mph 33.4 mph N/A   Scattered Clouds
3:54 PM 57.9 °F - 30.9 °F 36% 29.87 in 10.0 mi West 23.0 mph 34.5 mph N/A   Clear
4:54 PM 55.9 °F - 30.0 °F 37% 29.87 in 10.0 mi WNW 21.9 mph 32.2 mph N/A   Clear
5:54 PM 53.1 °F - 30.0 °F 41% 29.88 in 10.0 mi WNW 20.7 mph 28.8 mph N/A   Clear
6:54 PM 50.0 °F - 30.0 °F 46% 29.88 in 10.0 mi West 17.3 mph 25.3 mph N/A   Clear
7:54 PM 46.0 °F 41.0 °F 32.0 °F 58% 29.90 in 10.0 mi West 10.4 mph - N/A   Clear
8:54 PM 45.0 °F 38.9 °F 32.0 °F 60% 29.91 in 10.0 mi West 12.7 mph - N/A   Clear
9:54 PM 44.1 °F 38.6 °F 32.0 °F 63% 29.92 in 10.0 mi West 10.4 mph - N/A   Clear
10:54 PM 44.1 °F 37.4 °F 32.0 °F 63% 29.92 in 10.0 mi West 13.8 mph - N/A   Clear
11:54 PM 43.0 °F 35.7 °F 32.0 °F 65% 29.92 in 10.0 mi West 15.0 mph - N/A   Clear